Dutch Harbor, AK

1:45 AM AKDT on June 25, 2017 (GMT -0800)
Unalaska

Weather History for PADU - December, 2011

Change the Weather History Date:

Thursday, December 1, 2011

  Actual Average Record
Temperature  
Mean Temperature 42 °F -  
Max Temperature 44 °F 38 °F 48 °F (2014)
Min Temperature 39 °F 28 °F 15 °F (1987)
Degree Days  
Heating Degree Days 24    
Moisture  
Dew Point 33 °F    
Average Humidity 72    
Maximum Humidity 87    
Minimum Humidity 45    
Precipitation  
Precipitation 0.07 in - - ()
Sea Level Pressure  
Sea Level Pressure 29.71 in    
Wind  
Wind Speed 10 mph (South)    
Max Wind Speed 30 mph    
Max Gust Speed 44 mph    
Visibility 10 miles    
Events Rain    
Averages and records for this station are not official NWS values.
T = Trace of Precipitation, MM = Missing Value Source: NWS Daily Summary

Daily Weather History Graph

Daily Weather History Graph

Search for Another Location

Airport or City:

Trip Planner

Search our weather history database for the weather conditions in past years. The results will help you decide how hot, cold, wet, or windy it might be!

Date:

Astronomy

Dec. 01, 2011 Rise Set
Actual Time 10:01 AM AKST 5:48 PM AKST
Civil Twilight 9:19 AM AKST 6:30 PM AKST
Nautical Twilight 8:34 AM AKST 7:16 PM AKST
Astronomical Twilight 7:51 AM AKST 7:58 PM AKST
Moon 2:11 PM AKST (12/1) 12:34 AM AKST (12/1)
Length of Visible Light 9h 11m
Length of Day
7h 47m
Waxing Crescent, 45% of the Moon is Illuminated
Dec 1
Waxing Crescent
Dec 2
First Quarter
Dec 10
Full
Dec 17
Last Quarter
Dec 24
New

Hourly Weather History & Observations

Time (AKST) Temp. Windchill Dew Point Humidity Pressure Visibility Wind Dir Wind Speed Gust Speed Precip Events Conditions
12:58 AM 41.0 °F 35.2 °F 35.1 °F 79% 29.47 in 10.0 mi SSE 9.2 mph 21.9 mph 0.05 in Rain Light Rain
1:58 AM 44.1 °F 36.5 °F 37.0 °F 76% 29.48 in 10.0 mi SSW 17.3 mph 21.9 mph 0.01 in Rain Light Rain
2:40 AM 44.6 °F 35.5 °F 37.4 °F 76% 29.48 in 4.0 mi WSW 25.3 mph 43.7 mph 0.02 in Rain Light Rain
2:54 AM 44.6 °F 34.7 °F 37.4 °F 76% 29.49 in 5.0 mi WSW 29.9 mph 42.6 mph 0.02 in Rain Light Rain
3:58 AM 42.1 °F 33.1 °F 34.0 °F 73% 29.55 in 10.0 mi West 20.7 mph 35.7 mph 0.01 in Rain Light Rain
4:58 AM 44.1 °F 40.8 °F 24.1 °F 45% 29.59 in 10.0 mi Variable 5.8 mph 18.4 mph 0.00 in   Overcast
5:58 AM 42.1 °F 40.2 °F 28.9 °F 60% 29.60 in 10.0 mi Variable 3.5 mph - N/A   Overcast
6:49 AM 42.8 °F 39.3 °F 28.4 °F 57% 29.60 in 10.0 mi South 5.8 mph - N/A   Overcast
6:58 AM 42.1 °F 39.2 °F 27.0 °F 55% 29.62 in 10.0 mi South 4.6 mph - N/A   Overcast
6:59 AM 42.8 °F 41.1 °F 26.6 °F 53% 29.61 in 10.0 mi SSE 3.5 mph - N/A   Overcast
7:58 AM 42.1 °F 40.2 °F 28.9 °F 60% 29.63 in 10.0 mi East 3.5 mph - N/A   Overcast
8:02 AM 42.8 °F 41.1 °F 28.4 °F 57% 29.62 in 10.0 mi ESE 3.5 mph - N/A   Overcast
8:58 AM 41.0 °F 38.0 °F 28.9 °F 62% 29.65 in 10.0 mi Variable 4.6 mph - N/A   Overcast
9:58 AM 42.1 °F 37.7 °F 28.9 °F 60% 29.67 in 10.0 mi South 6.9 mph - N/A   Overcast
10:58 AM 42.1 °F 37.1 °F 33.1 °F 70% 29.70 in 10.0 mi SSW 8.1 mph - 0.00 in Rain Light Rain
11:58 AM 41.0 °F 37.1 °F 34.0 °F 76% 29.71 in 10.0 mi SSW 5.8 mph - 0.00 in   Overcast
12:58 PM 41.0 °F 37.1 °F 34.0 °F 76% 29.72 in 10.0 mi South 5.8 mph - 0.00 in Rain Light Rain
1:58 PM 41.0 °F 37.1 °F 34.0 °F 76% 29.73 in 10.0 mi South 5.8 mph - 0.00 in   Overcast
2:58 PM 41.0 °F 33.9 °F 35.1 °F 79% 29.74 in 10.0 mi SSW 12.7 mph - N/A   Overcast
3:58 PM 42.1 °F 37.7 °F 35.1 °F 76% 29.77 in 10.0 mi SSW 6.9 mph - N/A   Overcast
4:58 PM 42.1 °F 36.6 °F 35.1 °F 76% 29.79 in 10.0 mi SSW 9.2 mph - N/A   Overcast
5:58 PM 41.0 °F 38.0 °F 35.1 °F 79% 29.82 in 10.0 mi SW 4.6 mph - N/A   Overcast
6:58 PM 39.2 °F 37.0 °F 33.8 °F 81% 29.81 in 10.0 mi East 3.5 mph - N/A   Mostly Cloudy
7:58 PM 41.0 °F 37.1 °F 34.0 °F 76% 29.83 in 10.0 mi SSE 5.8 mph - N/A   Overcast
8:57 PM 41.0 °F - 35.1 °F 79% 29.84 in 10.0 mi Calm Calm - 0.00 in Rain Light Rain
9:02 PM 41.0 °F - 35.6 °F 81% 29.83 in 10.0 mi Calm Calm - 0.00 in Rain Light Rain
9:10 PM 41.0 °F - 35.6 °F 81% 29.83 in 10.0 mi Calm Calm - 0.00 in   Overcast
9:27 PM 41.0 °F 38.0 °F 35.6 °F 81% 29.83 in 10.0 mi South 4.6 mph - 0.00 in Rain Light Rain
9:58 PM 39.2 °F 35.9 °F 35.6 °F 87% 29.84 in 10.0 mi Variable 4.6 mph - N/A Rain Light Rain
10:04 PM 39.2 °F - 35.6 °F 87% 29.84 in 10.0 mi Calm Calm - 0.00 in Rain Light Rain
10:58 PM 41.0 °F 39.0 °F 34.0 °F 76% 29.86 in 10.0 mi Variable 3.5 mph - 0.00 in   Overcast
11:26 PM 42.8 °F 37.0 °F 33.8 °F 70% 29.86 in 10.0 mi SSW 10.4 mph - N/A   Overcast
11:58 PM 42.1 °F 37.7 °F 34.0 °F 73% 29.88 in 10.0 mi West 6.9 mph - N/A   Overcast